PEGASUS DEB, 39924

Orbit data source: Space-Track

PEGASUS DEB, 39924 is space debris in LEO originally from a launch on Thu, 19 May 1994 UTC launched from the Air Force Western Test Range (AFWTR). Debris objects in space refer to the collection of defunct objects orbiting the Earth. Examples of debris include non-operational satellites, rocket bodies, and fragments generated from explosions, collisions, or faulty payload assembly.

Loading next visibility...
Identifier
39924, 1994-029AFX
Orbit
LEO
Country
Flag of USUS
Related business
Manufacturer
Unknown
Mission
Spacecraft
Bus & Motor
Unknown
Mass
Unknown
Launch date (UTC)
1994-05-19 (32 years ago)
Launch vehicle
Unknown
Launch site
Air Force Western Test Range (AFWTR)
Object type
Payload
Rocket body
Debris
Shape & HBR
Unknown shape, 0.1 m
Radar Cross Section
Small (<0.1 m²)

Expand to show TLE details & history
Last TLE update: 2 days ago

TLE from 2 days ago
0 PEGASUS DEB
1 39924U 94029AFX 26262.14633678  .00001528  00000-0  15219-3 0  9994
2 39924  81.8528  50.3621 0104345 334.1462  25.4557 14.86979409660948
Epoch: 2026-09-19T03:30Z
TLE epoch observation values (Epoch: 2026-09-19T03:30:43.497Z)
Latitude
-0.00011°
Longitude
-0.37821°
Altitude
544.718 km
Speed
7.625 km/s
True Right ascension
03h 21m 26s
True Declination
0° 00' 00"
Sunlit
Object was in full shadow at epoch
Visualization orbit readout
Latitude
Unknown
Longitude
Unknown
Altitude
Unknown
Speed
Unknown
Apparent Right ascension
Unknown
Apparent Declination
Unknown
Sunlit
N/A
Visualization observer readout
Local Sidereal Time
15:02:58
Azimuth
Unknown
Elevation
Unknown
Doppler factor
Unknown
Orbital elements
Apogee altitude
677.282 km
Perigee altitude
531.563 km
Semi-major axis
6,982.559 km
Eccentricity
0.01043
Inclination
81.8528°
RAAN
50.3621°
Arg. of periapsis
334.1462°
True anomaly
25.97574°
Mean anomaly
25.4557°
Eccentric anomaly
25.71511°
Mean motion
3.71981 °/min
Orbital period
96.78 mins
BSTAR
0.00015219
Loading maneuver chart data...
Computing Atmospheric mass density...

Documentation

Showing up to 5 results
|